TimePDT,TemperatureF,Dew PointF,Humidity,Sea Level PressureIn,VisibilityMPH,Wind Direction,Wind SpeedMPH,Gust SpeedMPH,PrecipitationIn,Events,Conditions,WindDirDegrees,DateUTC
12:15 AM,44.6,33.8,66,30.14,10.0,South,5.8,-,N/A,,Mostly Cloudy,190,2014-05-10 07:15:00
12:35 AM,44.6,33.8,66,30.14,10.0,SW,8.1,-,N/A,,Mostly Cloudy,220,2014-05-10 07:35:00
12:55 AM,44.6,33.8,66,30.14,10.0,SW,9.2,16.1,N/A,,Mostly Cloudy,230,2014-05-10 07:55:00
1:15 AM,44.6,33.8,66,30.13,10.0,WSW,9.2,-,N/A,,Overcast,250,2014-05-10 08:15:00
1:35 AM,44.6,33.8,66,30.13,10.0,West,5.8,-,N/A,,Overcast,260,2014-05-10 08:35:00
1:55 AM,44.6,33.8,66,30.13,10.0,WSW,8.1,-,N/A,,Overcast,240,2014-05-10 08:55:00
2:15 AM,44.6,35.6,71,30.12,10.0,South,5.8,-,N/A,,Overcast,190,2014-05-10 09:15:00
2:35 AM,42.8,35.6,76,30.12,10.0,South,5.8,-,N/A,,Mostly Cloudy,180,2014-05-10 09:35:00
2:55 AM,42.8,35.6,76,30.12,10.0,South,5.8,-,N/A,,Mostly Cloudy,170,2014-05-10 09:55:00
3:15 AM,42.8,33.8,70,30.11,10.0,SSW,6.9,-,N/A,,Mostly Cloudy,200,2014-05-10 10:15:00
3:35 AM,42.8,35.6,76,30.11,10.0,South,5.8,-,N/A,,Mostly Cloudy,180,2014-05-10 10:35:00
3:55 AM,42.8,35.6,76,30.12,10.0,South,6.9,-,N/A,,Mostly Cloudy,190,2014-05-10 10:55:00
4:15 AM,41.0,35.6,81,30.11,10.0,South,8.1,-,N/A,,Mostly Cloudy,190,2014-05-10 11:15:00
4:35 AM,41.0,35.6,81,30.11,10.0,SSW,9.2,-,N/A,,Overcast,200,2014-05-10 11:35:00
4:55 AM,41.0,33.8,76,30.11,10.0,South,6.9,-,N/A,,Overcast,190,2014-05-10 11:55:00
5:15 AM,41.0,33.8,76,30.11,10.0,SSW,5.8,-,N/A,,Overcast,200,2014-05-10 12:15:00
5:35 AM,41.0,33.8,76,30.11,10.0,SSE,5.8,-,N/A,,Overcast,150,2014-05-10 12:35:00
5:55 AM,41.0,33.8,76,30.11,10.0,SSE,5.8,-,N/A,,Overcast,160,2014-05-10 12:55:00
6:15 AM,41.0,33.8,76,30.12,10.0,South,5.8,-,N/A,,Overcast,190,2014-05-10 13:15:00
6:35 AM,42.8,33.8,70,30.11,10.0,SSW,6.9,-,N/A,,Overcast,210,2014-05-10 13:35:00
6:55 AM,42.8,33.8,70,30.12,10.0,SSW,5.8,-,N/A,,Overcast,210,2014-05-10 13:55:00
7:15 AM,44.6,35.6,71,30.12,10.0,SSW,8.1,-,N/A,,Mostly Cloudy,200,2014-05-10 14:15:00
7:35 AM,44.6,35.6,71,30.12,10.0,SSW,9.2,-,N/A,,Overcast,200,2014-05-10 14:35:00
7:55 AM,46.4,35.6,66,30.12,10.0,SSW,10.4,-,N/A,,Mostly Cloudy,200,2014-05-10 14:55:00
8:15 AM,46.4,35.6,66,30.12,7.0,SSW,10.4,16.1,N/A,,Scattered Clouds,200,2014-05-10 15:15:00
8:35 AM,48.2,35.6,62,30.11,10.0,South,12.7,17.3,N/A,,Partly Cloudy,190,2014-05-10 15:35:00
8:55 AM,48.2,35.6,62,30.11,10.0,SW,9.2,18.4,N/A,,Clear,230,2014-05-10 15:55:00
9:15 AM,48.2,35.6,62,30.11,10.0,SSW,8.1,24.2,N/A,,Scattered Clouds,210,2014-05-10 16:15:00
9:35 AM,50.0,35.6,58,30.10,10.0,SSW,11.5,19.6,N/A,,Scattered Clouds,210,2014-05-10 16:35:00
9:55 AM,50.0,35.6,58,30.10,10.0,WNW,12.7,18.4,N/A,,Partly Cloudy,290,2014-05-10 16:55:00
10:15 AM,50.0,35.6,58,30.10,10.0,West,13.8,20.7,N/A,,Mostly Cloudy,260,2014-05-10 17:15:00
10:35 AM,50.0,35.6,58,30.11,10.0,WSW,9.2,21.9,N/A,,Mostly Cloudy,240,2014-05-10 17:35:00
10:55 AM,51.8,35.6,54,30.10,10.0,SSW,13.8,23.0,N/A,,Scattered Clouds,210,2014-05-10 17:55:00
11:15 AM,53.6,33.8,47,30.10,10.0,SW,9.2,18.4,N/A,,Scattered Clouds,220,2014-05-10 18:15:00
11:35 AM,55.4,32.0,41,30.10,10.0,WSW,16.1,26.5,N/A,,Scattered Clouds,250,2014-05-10 18:35:00
11:55 AM,55.4,32.0,41,30.10,10.0,SW,10.4,21.9,N/A,,Scattered Clouds,230,2014-05-10 18:55:00
12:15 PM,53.6,32.0,44,30.09,10.0,WSW,12.7,20.7,N/A,,Mostly Cloudy,250,2014-05-10 19:15:00
12:35 PM,55.4,32.0,41,30.09,10.0,SW,5.8,18.4,N/A,,Mostly Cloudy,220,2014-05-10 19:35:00
12:55 PM,57.2,30.2,36,30.09,10.0,WSW,9.2,18.4,N/A,,Scattered Clouds,240,2014-05-10 19:55:00
1:15 PM,57.2,28.4,33,30.08,10.0,WSW,10.4,17.3,N/A,,Partly Cloudy,250,2014-05-10 20:15:00
1:35 PM,57.2,28.4,33,30.08,10.0,WSW,12.7,23.0,N/A,,Scattered Clouds,240,2014-05-10 20:35:00
1:55 PM,57.2,28.4,33,30.08,10.0,NW,4.6,16.1,N/A,,Partly Cloudy,320,2014-05-10 20:55:00
2:15 PM,59.0,28.4,31,30.08,10.0,West,3.5,-,N/A,,Scattered Clouds,260,2014-05-10 21:15:00
2:35 PM,59.0,28.4,31,30.07,10.0,SSW,5.8,-,N/A,,Partly Cloudy,200,2014-05-10 21:35:00
2:55 PM,60.8,26.6,27,30.07,10.0,Calm,Calm,-,N/A,,Clear,0,2014-05-10 21:55:00
3:15 PM,62.6,19.4,19,30.07,10.0,NNW,6.9,19.6,N/A,,Partly Cloudy,340,2014-05-10 22:15:00
3:35 PM,62.6,19.4,19,30.07,10.0,NNE,10.4,17.3,N/A,,Clear,20,2014-05-10 22:35:00
3:55 PM,64.4,19.4,18,30.07,10.0,North,11.5,16.1,N/A,,Clear,360,2014-05-10 22:55:00
4:15 PM,64.4,19.4,18,30.07,10.0,North,12.7,18.4,N/A,,Clear,10,2014-05-10 23:15:00
4:35 PM,64.4,19.4,18,30.06,10.0,North,12.7,18.4,N/A,,Clear,10,2014-05-10 23:35:00
4:55 PM,64.4,19.4,18,30.06,10.0,NNE,6.9,-,N/A,,Clear,20,2014-05-10 23:55:00
5:15 PM,62.6,26.6,26,30.07,10.0,WSW,9.2,-,N/A,,Clear,240,2014-05-11 00:15:00
5:35 PM,64.4,24.8,22,30.07,10.0,WNW,4.6,-,N/A,,Clear,290,2014-05-11 00:35:00
5:55 PM,62.6,24.8,24,30.08,10.0,North,4.6,-,N/A,,Clear,360,2014-05-11 00:55:00
6:15 PM,62.6,26.6,26,30.07,10.0,SW,9.2,-,N/A,,Clear,230,2014-05-11 01:15:00
6:35 PM,62.6,26.6,26,30.07,10.0,North,6.9,-,N/A,,Clear,360,2014-05-11 01:35:00
6:55 PM,62.6,26.6,26,30.07,10.0,NNW,4.6,-,N/A,,Clear,330,2014-05-11 01:55:00
7:15 PM,60.8,26.6,27,30.08,10.0,NNW,3.5,-,N/A,,Clear,330,2014-05-11 02:15:00
7:35 PM,59.0,32.0,36,30.09,10.0,WNW,6.9,-,N/A,,Clear,290,2014-05-11 02:35:00
7:55 PM,57.2,32.0,38,30.10,10.0,West,5.8,-,N/A,,Clear,280,2014-05-11 02:55:00
8:15 PM,53.6,32.0,44,30.11,10.0,Calm,Calm,-,N/A,,Clear,0,2014-05-11 03:15:00
8:35 PM,50.0,32.0,50,30.12,10.0,ENE,3.5,-,N/A,,Partly Cloudy,70,2014-05-11 03:35:00
8:55 PM,48.2,32.0,54,30.13,10.0,NNE,3.5,-,N/A,,Scattered Clouds,30,2014-05-11 03:55:00
9:15 PM,46.4,32.0,57,30.13,10.0,Calm,Calm,-,N/A,,Scattered Clouds,0,2014-05-11 04:15:00
9:35 PM,46.4,32.0,57,30.14,10.0,Calm,Calm,-,N/A,,Scattered Clouds,0,2014-05-11 04:35:00
9:55 PM,44.6,32.0,61,30.15,10.0,Calm,Calm,-,N/A,,Mostly Cloudy,0,2014-05-11 04:55:00
10:15 PM,42.8,32.0,66,30.16,10.0,Calm,Calm,-,N/A,,Mostly Cloudy,0,2014-05-11 05:15:00
10:35 PM,41.0,32.0,70,30.17,10.0,Calm,Calm,-,N/A,,Mostly Cloudy,0,2014-05-11 05:35:00
10:55 PM,41.0,32.0,70,30.17,10.0,NNE,3.5,-,N/A,,Mostly Cloudy,20,2014-05-11 05:55:00
11:15 PM,41.0,32.0,70,30.18,10.0,Calm,Calm,-,N/A,,Mostly Cloudy,0,2014-05-11 06:15:00
11:35 PM,41.0,32.0,70,30.19,10.0,NNE,3.5,-,N/A,,Mostly Cloudy,30,2014-05-11 06:35:00
11:55 PM,39.2,32.0,75,30.20,10.0,ENE,4.6,-,N/A,,Mostly Cloudy,60,2014-05-11 06:55:00